[[{"header":{"parameterUnit":"m.s-1","parameterCategory":1,"la1":30.2991,"la2":30.254,"lo1":-89.0895,"lo2":-89.0444,"dy":0.0017,"dx":0.0017,"nx":28,"ny":28,"refTime":"2023-10-30T21:00:00:Z","depth":0,"parameterNumber":2,"parameterNumberName":"U-component_of_WINDS"},"data":[0,0,0,0,0,0,0,0,0,0,0,0,0,0,0,0,0,0,0,0,0,0,0,0,0,0,0,0,0,0,0,0,0,0,0,0,0,0,0,0,0,0,0,0,0,0,0,0,0,0,0,0,0,0,0,0,0,0,1.3234,1.3234,0,1.3206,1.3206,1.3205,1.3186,1.3186,1.3186,1.3186,1.3156,1.3155,1.3154,0,0,0,0,0,0,0,0,0,0,0,0,0,1.327,1.327,1.3234,1.3234,1.3233,1.3206,1.3206,1.3205,1.3186,1.3186,1.3186,1.3186,1.3156,1.3155,1.3154,0,0,0,0,0,0,0,0,0,0,0,0,0,1.325,1.3269,1.3234,1.3221,1.3219,1.3206,1.3206,1.3205,1.3186,1.3186,1.3186,1.3186,1.3156,1.3155,1.3154,1.3152,0,0,1.3151,1.3151,0,0,0,0,0,0,0,0,1.3251,1.3248,1.3223,1.3221,1.322,1.3199,1.3207,1.3187,1.3186,1.3199,1.3186,1.3186,1.317,1.3168,1.3163,1.3151,1.3149,1.3151,1.315,1.315,1.315,0,0,0,0,0,0,0,1.3252,1.3249,1.3223,1.3222,1.3221,1.3216,1.3212,1.3203,1.3186,1.3198,1.3196,1.3193,1.3169,1.3164,1.3162,1.3149,1.3151,1.315,1.315,1.3149,1.3134,1.3134,0,0,0,0,0,0,1.3256,1.3251,1.3224,1.3222,1.3235,1.3215,1.3212,1.3206,1.3186,1.3183,1.3193,1.3192,1.3166,1.3164,1.3161,1.3157,1.315,1.3149,1.3148,1.3133,1.3134,1.3134,0,0,0,0,0,0,1.3257,1.3254,1.3225,1.3236,1.3232,1.3215,1.3209,1.3206,1.32,1.3183,1.3179,1.3191,1.3166,1.3163,1.3155,1.3156,1.3149,1.3148,1.3133,1.3133,1.3134,1.315,0,0,0,0,0,0,1.3258,1.3254,1.3253,1.3236,1.3231,1.3219,1.3209,1.3205,1.3199,1.3197,1.318,1.3177,1.3165,1.3156,1.3154,1.3155,1.3147,1.3133,1.3133,1.3134,1.3149,1.3151,1.3152,0,0,0,0,0,1.3259,1.3258,1.3253,1.325,1.323,1.3219,1.3216,1.3203,1.3199,1.3198,1.3187,1.3178,1.3157,1.3156,1.3153,1.3153,1.3133,1.3133,1.3134,1.3148,1.315,1.3152,0,0,0,0,0,0,1.3275,1.3256,1.325,1.3244,1.3233,1.3216,1.3214,1.3206,1.3196,1.3195,1.3179,1.3175,1.3169,1.316,1.3159,1.315,1.3144,1.3143,1.3156,1.3158,1.3159,1.3161,1.3146,0,0,0,0,0,1.3278,1.3272,1.3255,1.3251,1.3246,1.3231,1.3226,1.3217,1.3205,1.3201,1.3189,1.3177,1.3168,1.3163,1.3153,1.3148,1.3144,1.3147,1.3149,1.315,1.315,1.3147,1.3148,1.3135,1.3135,1.3135,0,0,1.3284,1.3273,1.3269,1.3254,1.3245,1.3238,1.3227,1.322,1.3215,1.3199,1.3191,1.3182,1.3169,1.3162,1.3159,1.3155,1.3153,1.315,1.3152,1.3151,1.3147,1.3148,1.3149,1.3135,1.3135,1.3135,0,0,1.3291,1.3282,1.3278,1.3269,1.3256,1.3246,1.3245,1.3229,1.3223,1.3214,1.3203,1.3196,1.3181,1.3172,1.3165,1.317,1.3161,1.3167,1.3175,1.3172,1.3173,1.3174,1.3175,1.3176,1.3167,1.3167,1.3167,0,1.33,1.3289,1.3276,1.327,1.3264,1.325,1.3246,1.3238,1.3222,1.3218,1.3214,1.3195,1.3185,1.3177,1.3178,1.3173,1.3171,1.3169,1.3174,1.3174,1.3175,1.3176,1.3177,1.3168,1.3168,1.3168,1.3168,0,1.33,1.3293,1.3291,1.3277,1.3271,1.3265,1.3252,1.3247,1.3239,1.323,1.3221,1.3209,1.3197,1.3195,1.3187,1.3185,1.3183,1.3177,1.317,1.3177,1.3178,1.3179,1.3169,1.3169,1.3169,1.3169,0,0,1.3315,1.3295,1.3295,1.3288,1.3273,1.3267,1.3262,1.3251,1.3246,1.3236,1.3231,1.3219,1.3213,1.3206,1.3197,1.3194,1.3199,1.3188,1.3188,1.3191,1.3197,1.3201,1.3202,1.3194,1.3194,1.3194,1.3198,0,1.332,1.3309,1.3298,1.3291,1.3284,1.3272,1.3267,1.3258,1.3249,1.3242,1.3232,1.3224,1.3217,1.3213,1.321,1.3199,1.32,1.3199,1.3188,1.3188,1.3191,1.3203,1.3207,1.3212,1.3198,1.3198,1.3198,0,1.3323,1.3314,1.3307,1.3293,1.329,1.3285,1.3275,1.3268,1.3257,1.3251,1.3243,1.3234,1.3227,1.3222,1.3213,1.3212,1.3207,1.3201,1.3201,1.3199,1.3193,1.32,1.3213,1.3213,1.3199,1.3199,1.3199,0,1.3334,1.3321,1.3315,1.331,1.3293,1.3291,1.3284,1.3272,1.3267,1.3257,1.3254,1.3244,1.3238,1.323,1.3219,1.3216,1.3211,1.3204,1.3205,1.3206,1.3204,1.3204,1.3215,1.3202,1.3202,1.3202,1.3202,0,1.334,1.3336,1.332,1.3316,1.3311,1.3299,1.3294,1.3286,1.3276,1.3271,1.326,1.3255,1.324,1.3233,1.3224,1.3217,1.3215,1.321,1.3207,1.321,1.3211,1.3207,1.3206,1.3202,1.3202,1.3202,1.3202,0,1.3352,1.3341,1.3333,1.3319,1.3315,1.3312,1.33,1.3296,1.3287,1.328,1.3278,1.3264,1.3255,1.3243,1.3231,1.3225,1.322,1.3216,1.3223,1.3222,1.3224,1.3224,1.3232,1.3232,1.3219,1.3219,1.3219,0,1.3356,1.3352,1.3338,1.3334,1.3327,1.332,1.3315,1.3303,1.3297,1.3285,1.3282,1.3273,1.3265,1.3252,1.3241,1.3231,1.3227,1.3231,1.3225,1.3229,1.3227,1.3227,1.3226,1.3231,1.3232,1.3232,1.3232,0,1.3364,1.3359,1.3351,1.3342,1.3336,1.3328,1.332,1.3317,1.3303,1.3298,1.3289,1.3283,1.3271,1.3262,1.3251,1.3244,1.3235,1.3234,1.3234,1.3236,1.3241,1.3238,1.3226,1.3233,1.3233,1.3233,1.3233,1.3233,1.3372,1.3368,1.3358,1.335,1.3343,1.3335,1.3331,1.3322,1.3315,1.3304,1.3298,1.329,1.3279,1.3264,1.3257,1.325,1.3247,1.3247,1.3246,1.3246,1.3247,1.3243,1.3248,1.3248,1.3248,1.3248,1.3248,0,1.3379,1.3372,1.3365,1.3354,1.3348,1.3342,1.3332,1.3328,1.3321,1.3312,1.3304,1.3295,1.3286,1.3275,1.3265,1.3262,1.3258,1.326,1.326,1.3258,1.3251,1.3252,1.3264,1.3264,1.3264,1.3264,1.3264,1.3264,1.3382,1.3376,1.337,1.3361,1.3354,1.3346,1.3341,1.3334,1.3327,1.3317,1.331,1.3303,1.3293,1.3283,1.3275,1.3272,1.3269,1.3272,1.3267,1.326,1.3259,1.3258,1.3258,1.3271,1.3271,1.3275,1.3275,1.3275]},{"header":{"parameterUnit":"m.s-1","parameterCategory":1,"la1":30.2991,"la2":30.254,"lo1":-89.0895,"lo2":-89.0444,"dy":0.0017,"dx":0.0017,"nx":28,"ny":28,"refTime":"2023-10-30T21:00:00:Z","depth":0,"parameterNumber":3,"parameterNumberName":"V-component_of_WINDS"},"data":[0,0,0,0,0,0,0,0,0,0,0,0,0,0,0,0,0,0,0,0,0,0,0,0,0,0,0,0,0,0,0,0,0,0,0,0,0,0,0,0,0,0,0,0,0,0,0,0,0,0,0,0,0,0,0,0,0,0,-8.3821,-8.3822,0,-8.3957,-8.3958,-8.396,-8.3909,-8.3906,-8.3903,-8.39,-8.4032,-8.4038,-8.4044,0,0,0,0,0,0,0,0,0,0,0,0,0,-8.351,-8.3516,-8.382,-8.3822,-8.3824,-8.3957,-8.3958,-8.396,-8.391,-8.3906,-8.3903,-8.3899,-8.403,-8.4037,-8.4045,0,0,0,0,0,0,0,0,0,0,0,0,0,-8.3645,-8.3518,-8.382,-8.3815,-8.3816,-8.3956,-8.3958,-8.3961,-8.3911,-8.3906,-8.3902,-8.3897,-8.4027,-8.4036,-8.4046,-8.4196,0,0,-8.4075,-8.4079,0,0,0,0,0,0,0,0,-8.3638,-8.3657,-8.3814,-8.3816,-8.3817,-8.3912,-8.3897,-8.4039,-8.3912,-8.3875,-8.39,-8.3895,-8.3995,-8.4007,-8.4042,-8.4203,-8.4208,-8.4076,-8.4081,-8.4085,-8.4088,0,0,0,0,0,0,0,-8.3629,-8.3651,-8.3874,-8.3816,-8.3818,-8.3804,-8.3818,-8.3924,-8.3958,-8.3877,-8.3874,-8.3891,-8.3995,-8.4033,-8.4045,-8.421,-8.4075,-8.4084,-8.409,-8.4093,-8.4503,-8.4508,0,0,0,0,0,0,-8.362,-8.3643,-8.387,-8.3878,-8.3715,-8.3813,-8.3829,-8.3886,-8.3957,-8.3964,-8.3895,-8.3889,-8.4019,-8.4034,-8.4049,-8.4232,-8.4085,-8.4094,-8.41,-8.4498,-8.4504,-8.4509,0,0,0,0,0,0,-8.3613,-8.364,-8.3864,-8.376,-8.3787,-8.3823,-8.3888,-8.3891,-8.3929,-8.3971,-8.3976,-8.3929,-8.4016,-8.4036,-8.4161,-8.4236,-8.4099,-8.4107,-8.4492,-8.4499,-8.4507,-8.4598,0,0,0,0,0,0,-8.3604,-8.3638,-8.3697,-8.3762,-8.3793,-8.3976,-8.3892,-8.3897,-8.3947,-8.3939,-8.4004,-8.401,-8.4014,-8.4147,-8.4171,-8.4246,-8.4115,-8.4485,-8.4495,-8.4504,-8.4588,-8.4608,-8.4624,0,0,0,0,0,-8.3594,-8.3715,-8.3701,-8.3728,-8.3868,-8.3981,-8.3998,-8.4003,-8.3953,-8.4012,-8.4039,-8.4008,-8.4224,-8.4161,-8.4186,-8.4266,-8.448,-8.4492,-8.4503,-8.458,-8.4604,-8.4624,0,0,0,0,0,0,-8.3655,-8.3724,-8.3708,-8.3855,-8.3913,-8.3972,-8.4046,-8.4028,-8.4099,-8.4089,-8.4089,-8.4104,-8.4234,-8.4262,-8.419,-8.4416,-8.4344,-8.4361,-8.4394,-8.4416,-8.4434,-8.4424,-8.4123,0,0,0,0,0,-8.3686,-8.3775,-8.3828,-8.3952,-8.3983,-8.401,-8.4059,-8.4058,-8.4117,-8.414,-8.4176,-8.4233,-8.4313,-8.4366,-8.4442,-8.4592,-8.4605,-8.4659,-8.4677,-8.4692,-8.4707,-8.4789,-8.4814,-8.4548,-8.4547,-8.4547,0,0,-8.375,-8.3799,-8.3854,-8.3966,-8.4011,-8.4101,-8.4031,-8.4128,-8.4194,-8.4154,-8.4276,-8.4305,-8.4367,-8.4506,-8.4569,-8.4533,-8.4784,-8.4707,-8.4718,-8.4725,-8.4804,-8.4829,-8.4851,-8.4555,-8.4554,-8.4553,0,0,-8.3914,-8.3959,-8.4069,-8.4116,-8.4187,-8.4204,-8.4231,-8.4294,-8.4312,-8.4435,-8.4408,-8.4485,-8.4624,-8.467,-8.4712,-8.4896,-8.487,-8.492,-8.5014,-8.5095,-8.5116,-8.5134,-8.52,-8.5224,-8.4935,-8.4935,-8.4935,0,-8.3984,-8.4121,-8.4127,-8.4228,-8.4278,-8.425,-8.436,-8.4405,-8.4495,-8.4529,-8.4489,-8.4665,-8.4705,-8.4855,-8.49,-8.4934,-8.4964,-8.4913,-8.5113,-8.5131,-8.5149,-8.5212,-8.5237,-8.4941,-8.494,-8.494,-8.4939,0,-8.4204,-8.4299,-8.4379,-8.4471,-8.453,-8.4635,-8.4655,-8.4714,-8.4708,-8.473,-8.4855,-8.4903,-8.4989,-8.5025,-8.5018,-8.5174,-8.5151,-8.5112,-8.5039,-8.518,-8.5239,-8.5263,-8.4949,-8.4947,-8.4946,-8.4944,0,0,-8.4408,-8.4505,-8.4535,-8.4577,-8.4653,-8.4726,-8.4829,-8.4917,-8.4968,-8.5031,-8.5117,-8.5237,-8.5202,-8.5249,-8.5248,-8.5319,-8.5463,-8.5271,-8.5273,-8.5306,-8.5638,-8.5667,-8.5695,-8.5446,-8.5451,-8.5454,-8.5633,0,-8.4579,-8.4764,-8.4774,-8.4941,-8.5029,-8.5004,-8.5094,-8.515,-8.5173,-8.5249,-8.5273,-8.5359,-8.5306,-8.5335,-8.5403,-8.5431,-8.5529,-8.5418,-8.5525,-8.5529,-8.5511,-8.5726,-8.5757,-8.5924,-8.5656,-8.566,-8.5663,0,-8.4802,-8.4877,-8.5054,-8.512,-8.5157,-8.5239,-8.5321,-8.5395,-8.5457,-8.5468,-8.5524,-8.5513,-8.5617,-8.5541,-8.5684,-8.5609,-8.5653,-8.5673,-8.5679,-8.569,-8.5605,-8.5743,-8.5977,-8.6002,-8.5699,-8.5696,-8.5694,0,-8.4935,-8.5079,-8.5205,-8.5241,-8.5321,-8.5379,-8.5415,-8.5473,-8.5526,-8.5597,-8.5631,-8.5712,-8.5756,-8.5818,-8.5829,-8.5773,-8.5973,-8.5897,-8.5984,-8.5984,-8.6027,-8.6025,-8.6272,-8.6055,-8.6055,-8.6055,-8.6054,0,-8.5124,-8.5234,-8.5266,-8.5343,-8.5465,-8.5474,-8.5594,-8.5625,-8.5677,-8.5758,-8.5741,-8.5817,-8.5827,-8.5905,-8.5913,-8.6031,-8.6051,-8.6062,-8.6063,-8.6065,-8.6063,-8.6093,-8.6082,-8.6061,-8.606,-8.6058,-8.6057,0,-8.5293,-8.5319,-8.5455,-8.5521,-8.554,-8.5627,-8.5682,-8.5755,-8.5777,-8.588,-8.5905,-8.5939,-8.603,-8.6048,-8.6154,-8.616,-8.6301,-8.629,-8.6281,-8.628,-8.6366,-8.6358,-8.6642,-8.668,-8.6438,-8.644,-8.6442,0,-8.5413,-8.5497,-8.5574,-8.5629,-8.5668,-8.5756,-8.5812,-8.5824,-8.5881,-8.596,-8.6024,-8.6114,-8.6187,-8.6334,-8.6366,-8.6448,-8.6439,-8.6533,-8.645,-8.645,-8.6441,-8.6436,-8.6445,-8.6548,-8.6551,-8.6553,-8.6555,0,-8.5622,-8.5632,-8.5714,-8.5801,-8.5869,-8.5937,-8.6001,-8.6047,-8.6067,-8.6132,-8.6228,-8.6285,-8.6396,-8.6486,-8.6568,-8.6601,-8.6582,-8.6581,-8.6605,-8.6607,-8.6599,-8.6606,-8.6325,-8.6574,-8.6572,-8.6571,-8.657,-8.6569,-8.5771,-8.5846,-8.5912,-8.6004,-8.6055,-8.6117,-8.619,-8.6223,-8.6303,-8.6397,-8.6398,-8.6503,-8.6563,-8.6672,-8.6711,-8.6792,-8.6761,-8.6797,-8.6806,-8.6815,-8.6823,-8.6587,-8.6806,-8.6806,-8.6805,-8.6805,-8.6804,0,-8.5981,-8.6023,-8.6108,-8.6201,-8.6274,-8.6253,-8.6323,-8.6385,-8.6478,-8.6538,-8.6611,-8.6721,-8.6808,-8.6849,-8.6934,-8.6991,-8.6984,-8.7013,-8.7009,-8.7017,-8.6845,-8.6816,-8.7017,-8.7017,-8.7017,-8.7017,-8.7017,-8.7017,-8.6098,-8.6225,-8.6242,-8.6393,-8.6434,-8.6539,-8.6581,-8.6638,-8.6686,-8.6811,-8.6885,-8.6912,-8.6963,-8.7053,-8.7132,-8.7141,-8.7174,-8.7207,-8.7212,-8.7051,-8.7029,-8.7008,-8.6981,-8.7214,-8.7214,-8.7378,-8.738,-8.7381]}]]